[[{"header":{"parameterUnit":"m.s-1","parameterCategory":2,"la1":30.2991,"la2":30.254,"lo1":-89.0895,"lo2":-89.0444,"dy":0.0017,"dx":0.0017,"nx":28,"ny":28,"refTime":"2023-08-26T09:00:00:Z","depth":"0","parameterNumber":2,"parameterNumberName":"U-component_of_CURRENTS"},"data":[0,0,0,0,0,0,0,0,0,0,0,0,0,0,0,0,0,0,0,0,0,0,0,0,0,0,0,0,0,0,0,0,0,0,0,0,0,0,0,0,0,0,0,0,0,0,0,0,0,0,0,0,0,0,0,0,0,0,0.3244,0.3245,0,0.3319,0.3319,0.332,0.3331,0.333,0.333,0.333,0.3297,0.3296,0.3295,0,0,0,0,0,0,0,0,0,0,0,0,0,0.3114,0.3116,0.3244,0.3246,0.3247,0.3319,0.3319,0.332,0.3331,0.333,0.333,0.3329,0.3297,0.3296,0.3295,0,0,0,0,0,0,0,0,0,0,0,0,0,0.3174,0.3117,0.3244,0.3264,0.3266,0.3319,0.3319,0.332,0.3331,0.333,0.333,0.3329,0.3297,0.3296,0.3295,0.33,0,0,0.3293,0.3292,0,0,0,0,0,0,0,0,0.3171,0.3178,0.3259,0.3262,0.3266,0.3318,0.3262,0.331,0.3331,0.3302,0.333,0.3329,0.3297,0.3296,0.3307,0.3299,0.3297,0.3293,0.3292,0.3292,0.3292,0,0,0,0,0,0,0,0.3167,0.3175,0.327,0.3261,0.3265,0.327,0.3277,0.3271,0.3297,0.3305,0.3307,0.3321,0.3297,0.3308,0.3306,0.3297,0.3293,0.3292,0.3291,0.3291,0.3329,0.333,0,0,0,0,0,0,0.3166,0.3172,0.3268,0.3273,0.322,0.3273,0.3281,0.3299,0.3299,0.3301,0.3321,0.3321,0.331,0.3307,0.3305,0.3339,0.3292,0.3291,0.3291,0.3328,0.3329,0.3331,0,0,0,0,0,0,0.3163,0.3174,0.3265,0.3226,0.3239,0.3276,0.3296,0.3301,0.3316,0.3314,0.3312,0.3333,0.3309,0.3306,0.3316,0.3336,0.3291,0.329,0.3326,0.3328,0.333,0.3388,0,0,0,0,0,0,0.3159,0.3172,0.3182,0.3227,0.3241,0.3299,0.3297,0.3303,0.3327,0.3328,0.3322,0.3319,0.3309,0.3318,0.3315,0.3334,0.3289,0.3324,0.3327,0.3329,0.3384,0.3392,0.3399,0,0,0,0,0,0.3154,0.3168,0.3182,0.3193,0.3254,0.3301,0.3308,0.333,0.3328,0.334,0.3344,0.3319,0.3334,0.3318,0.3315,0.3334,0.3322,0.3326,0.3329,0.3381,0.339,0.3398,0,0,0,0,0,0,0.3115,0.3173,0.3188,0.3219,0.326,0.3304,0.3318,0.3334,0.3349,0.3346,0.3336,0.3334,0.3352,0.3337,0.3321,0.3356,0.3325,0.3328,0.3365,0.3374,0.3381,0.3376,0.3289,0,0,0,0,0,0.3113,0.3136,0.3195,0.3216,0.324,0.328,0.33,0.3321,0.3344,0.335,0.3351,0.3353,0.3365,0.3364,0.3368,0.3381,0.3397,0.3394,0.3401,0.3407,0.3403,0.3455,0.3467,0.3342,0.3342,0.3342,0,0,0.3101,0.3137,0.3148,0.3209,0.324,0.3284,0.329,0.3328,0.3359,0.3342,0.3372,0.3376,0.3376,0.34,0.3406,0.3388,0.3458,0.3412,0.3417,0.3409,0.346,0.3472,0.3483,0.3344,0.3344,0.3344,0,0,0.3098,0.3126,0.3152,0.3192,0.3252,0.3282,0.3296,0.3349,0.3366,0.34,0.3403,0.3424,0.343,0.3446,0.3451,0.3499,0.3497,0.3498,0.3525,0.3577,0.3588,0.3597,0.3662,0.3676,0.3499,0.3499,0.3499,0,0.3085,0.3127,0.3165,0.321,0.3238,0.3284,0.332,0.3356,0.3403,0.3419,0.3412,0.3456,0.3455,0.3495,0.3516,0.3514,0.3546,0.3491,0.3587,0.3596,0.3605,0.3668,0.3684,0.3502,0.3502,0.3502,0.3501,0,0.3112,0.3148,0.3167,0.3237,0.3271,0.3308,0.3368,0.3402,0.3424,0.3458,0.3499,0.3513,0.3535,0.3548,0.3544,0.3607,0.3614,0.3594,0.3564,0.3621,0.3685,0.37,0.3507,0.3506,0.3505,0.3504,0,0,0.3084,0.3169,0.3178,0.3209,0.3286,0.3319,0.3372,0.3433,0.3475,0.3513,0.356,0.3589,0.3598,0.3605,0.3613,0.3656,0.3758,0.3651,0.3652,0.3713,0.3892,0.3933,0.3953,0.3757,0.3759,0.3761,0.3922,0,0.3096,0.3164,0.3204,0.3263,0.3302,0.3353,0.3401,0.346,0.3505,0.3568,0.3597,0.3644,0.3622,0.3643,0.3683,0.3732,0.3795,0.3716,0.3827,0.3831,0.3859,0.397,0.3817,0.395,0.3936,0.3939,0.3941,0,0.3116,0.3158,0.3208,0.3277,0.33,0.334,0.3415,0.3468,0.3563,0.36,0.3649,0.3681,0.3747,0.3726,0.3836,0.3788,0.3847,0.3888,0.3894,0.3916,0.3899,0.3885,0.3977,0.3908,0.3963,0.3962,0.396,0,0.3075,0.316,0.319,0.3217,0.3308,0.3333,0.3382,0.3471,0.3517,0.3629,0.3679,0.3749,0.3797,0.3865,0.3948,0.3898,0.4092,0.403,0.413,0.4134,0.4016,0.4006,0.4045,0.4135,0.4135,0.4134,0.4134,0,0.307,0.3101,0.3176,0.3197,0.3239,0.3311,0.3366,0.3436,0.3534,0.3605,0.369,0.3757,0.3835,0.3946,0.4,0.4134,0.4139,0.4167,0.4189,0.4036,0.4027,0.3968,0.3921,0.414,0.4139,0.4138,0.4137,0,0.3028,0.3077,0.3119,0.3198,0.322,0.3253,0.3341,0.3391,0.3501,0.36,0.3639,0.378,0.3943,0.4058,0.4202,0.4212,0.4233,0.4382,0.4214,0.4214,0.4196,0.4158,0.407,0.3949,0.449,0.4492,0.4494,0,0.3011,0.3029,0.3097,0.3111,0.3145,0.32,0.324,0.3354,0.3417,0.3609,0.3658,0.3856,0.3979,0.4233,0.4332,0.4487,0.4349,0.4418,0.4287,0.4213,0.4186,0.3996,0.3884,0.416,0.4159,0.4158,0.4157,0,0.2972,0.2995,0.3023,0.3059,0.3093,0.3131,0.3205,0.3242,0.3397,0.3493,0.3642,0.3757,0.4048,0.4141,0.4385,0.4441,0.4208,0.4406,0.4351,0.3968,0.3737,0.3624,0.4053,0.4149,0.415,0.415,0.4151,0.4151,0.2931,0.2936,0.2972,0.3,0.3034,0.3061,0.3053,0.3156,0.3238,0.3369,0.3537,0.3679,0.3916,0.4231,0.4277,0.4292,0.4225,0.4172,0.4149,0.3977,0.3795,0.4241,0.4349,0.4351,0.4353,0.4354,0.4356,0,0.2889,0.29,0.2913,0.2932,0.2929,0.298,0.3026,0.3006,0.3062,0.3241,0.3359,0.3594,0.3743,0.3934,0.4103,0.4035,0.379,0.3947,0.3604,0.3517,0.3946,0.3868,0.385,0.385,0.385,0.385,0.385,0.385,0.2869,0.2863,0.2868,0.2832,0.2831,0.2788,0.2783,0.2787,0.2871,0.2977,0.3108,0.3266,0.3613,0.3897,0.392,0.3829,0.3542,0.3414,0.3403,0.3694,0.3709,0.3724,0.364,0.3574,0.3573,0.2783,0.2777,0.2773]},{"header":{"parameterUnit":"m.s-1","parameterCategory":2,"la1":30.2991,"la2":30.254,"lo1":-89.0895,"lo2":-89.0444,"dy":0.0017,"dx":0.0017,"nx":28,"ny":28,"refTime":"2023-08-26T09:00:00:Z","depth":"0","parameterNumber":3,"parameterNumberName":"V-component_of_CURRENTS"},"data":[0,0,0,0,0,0,0,0,0,0,0,0,0,0,0,0,0,0,0,0,0,0,0,0,0,0,0,0,0,0,0,0,0,0,0,0,0,0,0,0,0,0,0,0,0,0,0,0,0,0,0,0,0,0,0,0,0,0,-0.0866,-0.0867,0,-0.0998,-0.1,-0.1002,-0.1091,-0.1091,-0.1092,-0.1092,-0.1287,-0.1292,-0.1296,0,0,0,0,0,0,0,0,0,0,0,0,0,-0.0773,-0.0774,-0.0865,-0.0867,-0.0868,-0.0998,-0.1,-0.1002,-0.1091,-0.1091,-0.1092,-0.1092,-0.1285,-0.1291,-0.1297,0,0,0,0,0,0,0,0,0,0,0,0,0,-0.0852,-0.0774,-0.0865,-0.0926,-0.0933,-0.0998,-0.1,-0.1003,-0.1091,-0.1091,-0.1092,-0.1093,-0.1283,-0.129,-0.1298,-0.1331,0,0,-0.132,-0.1323,0,0,0,0,0,0,0,0,-0.0848,-0.0856,-0.0916,-0.0922,-0.093,-0.1026,-0.1039,-0.1115,-0.1091,-0.1034,-0.1092,-0.1093,-0.1203,-0.1217,-0.1244,-0.134,-0.1348,-0.132,-0.1325,-0.1328,-0.133,0,0,0,0,0,0,0,-0.0842,-0.0851,-0.0921,-0.0917,-0.0926,-0.0976,-0.0987,-0.1054,-0.1117,-0.1039,-0.1045,-0.1055,-0.1208,-0.1237,-0.1249,-0.1351,-0.132,-0.1327,-0.1331,-0.1334,-0.1511,-0.1511,0,0,0,0,0,0,-0.0815,-0.0845,-0.0916,-0.0924,-0.0886,-0.0976,-0.0989,-0.0997,-0.1115,-0.1132,-0.1055,-0.1059,-0.1224,-0.1241,-0.1256,-0.1295,-0.1328,-0.1335,-0.1339,-0.1511,-0.1511,-0.1512,0,0,0,0,0,0,-0.0813,-0.082,-0.0911,-0.0886,-0.0901,-0.0976,-0.0985,-0.0999,-0.1026,-0.1126,-0.1145,-0.1066,-0.1225,-0.1246,-0.1311,-0.1303,-0.1338,-0.1344,-0.151,-0.1511,-0.1511,-0.1377,0,0,0,0,0,0,-0.0809,-0.0818,-0.0816,-0.0884,-0.0901,-0.094,-0.0984,-0.1001,-0.103,-0.1037,-0.1142,-0.1161,-0.1227,-0.13,-0.1318,-0.1314,-0.135,-0.151,-0.1511,-0.1511,-0.1381,-0.1372,-0.1365,0,0,0,0,0,-0.0806,-0.0791,-0.0815,-0.0824,-0.0895,-0.0939,-0.0953,-0.1011,-0.103,-0.1038,-0.1107,-0.1157,-0.1318,-0.1305,-0.1327,-0.1325,-0.1509,-0.151,-0.1511,-0.1384,-0.1374,-0.1366,0,0,0,0,0,0,-0.0741,-0.0801,-0.0828,-0.0831,-0.0879,-0.0953,-0.0962,-0.1001,-0.1062,-0.1068,-0.116,-0.1184,-0.1244,-0.1304,-0.1288,-0.1381,-0.1423,-0.1428,-0.1319,-0.1311,-0.1303,-0.1253,-0.1356,0,0,0,0,0,-0.0726,-0.0734,-0.0801,-0.0799,-0.082,-0.0889,-0.0914,-0.0954,-0.1015,-0.1042,-0.1112,-0.1192,-0.1265,-0.13,-0.1378,-0.1419,-0.1434,-0.1436,-0.1428,-0.1421,-0.1398,-0.1417,-0.1407,-0.1514,-0.1514,-0.1514,0,0,-0.0698,-0.0731,-0.0735,-0.0787,-0.0827,-0.0849,-0.0906,-0.0934,-0.0954,-0.1054,-0.1095,-0.1172,-0.1274,-0.1327,-0.1358,-0.1372,-0.1394,-0.1422,-0.1415,-0.1395,-0.1416,-0.1405,-0.1396,-0.1515,-0.1515,-0.1515,0,0,-0.0643,-0.0676,-0.067,-0.0705,-0.076,-0.0809,-0.081,-0.0883,-0.0918,-0.0969,-0.1048,-0.1103,-0.1218,-0.1276,-0.1324,-0.1321,-0.136,-0.1359,-0.127,-0.1288,-0.1278,-0.127,-0.1239,-0.1229,-0.1345,-0.1345,-0.1345,0,-0.0607,-0.0611,-0.0672,-0.0679,-0.0695,-0.0782,-0.0778,-0.083,-0.0913,-0.093,-0.0967,-0.1102,-0.1189,-0.1238,-0.1242,-0.1299,-0.13,-0.1289,-0.1272,-0.1265,-0.1258,-0.123,-0.122,-0.1339,-0.1339,-0.134,-0.1341,0,-0.0557,-0.0564,-0.0558,-0.0598,-0.0624,-0.0633,-0.0709,-0.0742,-0.0792,-0.0841,-0.0898,-0.1001,-0.1075,-0.1117,-0.1181,-0.1185,-0.1195,-0.1261,-0.1279,-0.1238,-0.1212,-0.1204,-0.133,-0.1332,-0.1334,-0.1335,0,0,-0.0465,-0.0514,-0.0511,-0.0519,-0.058,-0.0598,-0.0624,-0.0671,-0.0675,-0.0756,-0.0754,-0.0877,-0.0919,-0.0975,-0.1058,-0.107,-0.1026,-0.1131,-0.1135,-0.1069,-0.102,-0.0947,-0.0933,-0.1085,-0.1084,-0.1083,-0.1005,0,-0.0407,-0.0397,-0.0435,-0.0425,-0.043,-0.0502,-0.0513,-0.0565,-0.0619,-0.0644,-0.0734,-0.0775,-0.0872,-0.0892,-0.0923,-0.1016,-0.1006,-0.1038,-0.1097,-0.1097,-0.1013,-0.0922,-0.0903,-0.0825,-0.0998,-0.0997,-0.0996,0,-0.0344,-0.035,-0.0323,-0.0347,-0.0352,-0.0351,-0.0377,-0.0401,-0.0461,-0.0493,-0.0539,-0.0619,-0.0662,-0.0749,-0.0828,-0.0843,-0.0907,-0.0965,-0.0965,-0.0937,-0.1011,-0.0907,-0.0806,-0.1035,-0.0985,-0.0986,-0.0986,0,-0.026,-0.027,-0.0243,-0.0252,-0.0291,-0.0278,-0.0296,-0.0342,-0.0331,-0.0383,-0.0355,-0.046,-0.0473,-0.0582,-0.0706,-0.0766,-0.0764,-0.0877,-0.0857,-0.0852,-0.0865,-0.0862,-0.0967,-0.09,-0.0901,-0.0901,-0.0901,0,-0.0191,-0.0173,-0.02,-0.0187,-0.0139,-0.0194,-0.0142,-0.0178,-0.018,-0.0109,-0.0255,-0.02,-0.0431,-0.0473,-0.062,-0.0673,-0.0696,-0.0794,-0.0818,-0.0815,-0.0809,-0.1037,-0.117,-0.0898,-0.0899,-0.0899,-0.09,0,-0.0112,-0.0132,-0.0098,-0.0106,-0.0097,-0.006,-0.0022,0.0022,0.0002,0.0101,0.0109,0.0015,-0.002,-0.0211,-0.0365,-0.0518,-0.0713,-0.0632,-0.058,-0.0598,-0.0814,-0.0939,-0.1013,-0.1118,-0.0601,-0.0598,-0.0596,0,-0.0075,-0.0048,-0.0017,0.0034,0.0042,0.0088,0.0144,0.0123,0.0199,0.0271,0.0355,0.0327,0.0376,0.0182,-0.0105,-0.0296,-0.0559,-0.044,-0.0568,-0.0769,-0.093,-0.1038,-0.1132,-0.0528,-0.0526,-0.0524,-0.0523,0,0.0011,0.003,0.0061,0.0173,0.0246,0.032,0.0406,0.0497,0.0532,0.0656,0.082,0.0867,0.0673,0.0486,0.0172,-0.0025,-0.0596,-0.0402,-0.0654,-0.0883,-0.0968,-0.1099,-0.0616,-0.0505,-0.0507,-0.0508,-0.0509,-0.051,0.009,0.015,0.0224,0.033,0.0428,0.0579,0.0692,0.0823,0.1012,0.1244,0.1221,0.1374,0.0981,0.0566,0.025,-0.0374,-0.0413,-0.0597,-0.0725,-0.0811,-0.0934,-0.036,-0.026,-0.026,-0.0261,-0.0261,-0.0261,0,0.0206,0.0279,0.0386,0.0541,0.0697,0.0699,0.0896,0.1045,0.1345,0.1556,0.1743,0.1674,0.121,0.0624,-0.018,-0.0633,-0.0884,-0.0917,-0.1136,-0.1217,-0.074,-0.0764,-0.0717,-0.0717,-0.0717,-0.0717,-0.0716,-0.0716,0.028,0.0414,0.0474,0.0761,0.0878,0.1098,0.1227,0.1461,0.1649,0.1977,0.2106,0.2151,0.1694,0.0236,-0.0831,-0.1101,-0.1481,-0.1502,-0.1703,-0.1468,-0.1452,-0.1437,-0.1494,-0.1601,-0.1602,-0.2161,-0.2167,-0.2171]}],[{"header":{"parameterUnit":"m.s-1","parameterCategory":2,"la1":30.2991,"la2":30.254,"lo1":-89.0895,"lo2":-89.0444,"dy":0.0017,"dx":0.0017,"nx":28,"ny":28,"refTime":"2023-08-26T09:00:00:Z","depth":"2","parameterNumber":2,"parameterNumberName":"U-component_of_CURRENTS"},"data":[0,0,0,0,0,0,0,0,0,0,0,0,0,0,0,0,0,0,0,0,0,0,0,0,0,0,0,0,0,0,0,0,0,0,0,0,0,0,0,0,0,0,0,0,0,0,0,0,0,0,0,0,0,0,0,0,0,0,0.2448,0.245,0,0.2499,0.2499,0.2498,0.2554,0.2556,0.2558,0.256,0.2652,0.2652,0.2653,0,0,0,0,0,0,0,0,0,0,0,0,0,0.2396,0.2396,0.2448,0.245,0.2452,0.2499,0.2499,0.2498,0.2553,0.2556,0.2558,0.2561,0.2651,0.2652,0.2653,0,0,0,0,0,0,0,0,0,0,0,0,0,0.2418,0.2396,0.2448,0.2495,0.25,0.2499,0.2499,0.2498,0.2553,0.2556,0.2559,0.2562,0.2651,0.2652,0.2653,0.2598,0,0,0.2656,0.2656,0,0,0,0,0,0,0,0,0.2416,0.2418,0.2486,0.2492,0.2498,0.2535,0.2515,0.2538,0.2552,0.2519,0.256,0.2563,0.2623,0.2626,0.261,0.2602,0.2606,0.2656,0.2656,0.2657,0.2657,0,0,0,0,0,0,0,0.2415,0.2416,0.2455,0.2488,0.2495,0.2514,0.2518,0.2518,0.2544,0.2522,0.253,0.2555,0.2625,0.2608,0.2613,0.2608,0.2656,0.2656,0.2657,0.2657,0.2697,0.2697,0,0,0,0,0,0,0.2431,0.2414,0.2454,0.2458,0.2479,0.2513,0.2518,0.2509,0.2543,0.2555,0.2553,0.2558,0.2606,0.2612,0.2616,0.2705,0.2657,0.2657,0.2658,0.2696,0.2697,0.2697,0,0,0,0,0,0,0.2429,0.2433,0.2452,0.245,0.2456,0.2512,0.2501,0.2509,0.2534,0.2569,0.2579,0.2577,0.2608,0.2615,0.2694,0.2704,0.2658,0.2659,0.2695,0.2696,0.2697,0.2786,0,0,0,0,0,0,0.2427,0.243,0.2427,0.245,0.2457,0.2533,0.25,0.2508,0.255,0.2557,0.2592,0.2601,0.2611,0.2693,0.2695,0.2704,0.2659,0.2695,0.2696,0.2697,0.2782,0.279,0.2796,0,0,0,0,0,0.2424,0.2422,0.2425,0.2432,0.2449,0.2538,0.2544,0.2584,0.2548,0.2604,0.262,0.2602,0.2699,0.2696,0.2698,0.2707,0.2694,0.2695,0.2697,0.2779,0.2788,0.2796,0,0,0,0,0,0,0.2376,0.2428,0.2433,0.2438,0.2522,0.2555,0.2587,0.2593,0.2634,0.2643,0.2632,0.2646,0.2716,0.2693,0.269,0.2716,0.2682,0.2683,0.2743,0.2752,0.2758,0.2763,0.266,0,0,0,0,0,0.2366,0.2402,0.2457,0.2478,0.2506,0.2537,0.2567,0.2617,0.2658,0.2677,0.2687,0.269,0.2705,0.2724,0.2748,0.2765,0.2767,0.2761,0.2768,0.2774,0.2776,0.2812,0.2824,0.2701,0.2701,0.2701,0,0,0.237,0.2393,0.2421,0.2477,0.2513,0.2548,0.2562,0.2651,0.2671,0.2679,0.2698,0.2735,0.2722,0.2767,0.2787,0.2759,0.2811,0.2775,0.2781,0.278,0.2815,0.2827,0.2838,0.2702,0.2702,0.2702,0,0,0.2379,0.2398,0.2422,0.2491,0.2586,0.2602,0.2635,0.2696,0.2721,0.2769,0.2769,0.2831,0.282,0.2842,0.2833,0.2879,0.2861,0.2864,0.2891,0.2927,0.2938,0.2948,0.298,0.2992,0.2851,0.2851,0.2851,0,0.2372,0.2393,0.2457,0.2493,0.2537,0.2616,0.265,0.2678,0.2764,0.2796,0.28,0.2832,0.2845,0.2878,0.2902,0.2897,0.2914,0.2867,0.2939,0.2949,0.2957,0.2988,0.3,0.2855,0.2855,0.2854,0.2854,0,0.2405,0.2426,0.2455,0.2502,0.2557,0.264,0.269,0.2758,0.277,0.28,0.2882,0.2916,0.2941,0.2941,0.2933,0.299,0.2984,0.2963,0.2926,0.2976,0.3004,0.3015,0.2861,0.286,0.2859,0.2857,0,0,0.2381,0.2457,0.2484,0.2496,0.2585,0.2641,0.2682,0.2759,0.2798,0.2871,0.2906,0.2952,0.3004,0.2998,0.3014,0.3039,0.3125,0.3028,0.3028,0.3074,0.3214,0.3162,0.3169,0.3126,0.3128,0.3129,0.3216,0,0.239,0.2442,0.2488,0.2542,0.2544,0.2648,0.2675,0.277,0.2827,0.2895,0.2953,0.3003,0.3005,0.3048,0.3079,0.313,0.3155,0.3103,0.3146,0.3147,0.3107,0.318,0.2953,0.3007,0.3226,0.3228,0.323,0,0.2402,0.242,0.2463,0.2529,0.2552,0.2602,0.2709,0.2761,0.2877,0.2935,0.3019,0.3063,0.3146,0.3119,0.3223,0.3197,0.321,0.3227,0.3231,0.3156,0.3115,0.2988,0.3018,0.3247,0.3246,0.3245,0.3243,0,0.2333,0.2415,0.2442,0.2478,0.255,0.2609,0.2671,0.2783,0.2842,0.2974,0.304,0.3137,0.3199,0.3245,0.3298,0.3274,0.3392,0.3354,0.3314,0.331,0.3109,0.3084,0.3401,0.3401,0.3401,0.34,0.34,0,0.2306,0.2336,0.2427,0.2444,0.2505,0.2573,0.2661,0.2763,0.2878,0.2952,0.306,0.3133,0.3236,0.3311,0.3333,0.3377,0.3424,0.334,0.3336,0.3133,0.3111,0.33,0.3287,0.3404,0.3403,0.3402,0.3402,0,0.2231,0.2292,0.2318,0.242,0.2458,0.2514,0.2654,0.2714,0.2848,0.2948,0.2994,0.3158,0.3277,0.3356,0.3445,0.3423,0.3462,0.3447,0.3208,0.3174,0.3345,0.3336,0.3424,0.3424,0.3423,0.3422,0.3421,0,0.2204,0.2202,0.2306,0.2334,0.2389,0.2476,0.2529,0.2681,0.2748,0.295,0.2991,0.3153,0.323,0.3368,0.3392,0.3436,0.3464,0.3217,0.3116,0.3364,0.3352,0.3343,0.3335,0.289,0.2886,0.2882,0.2878,0,0.2133,0.2187,0.2209,0.2272,0.2336,0.2398,0.2499,0.2538,0.2706,0.2794,0.2921,0.2998,0.3169,0.3136,0.3216,0.3198,0.3199,0.3137,0.3469,0.292,0.2867,0.2853,0.2861,0.2843,0.2846,0.2849,0.2851,0.2852,0.2101,0.2117,0.2169,0.2227,0.2278,0.2319,0.233,0.2419,0.2491,0.2603,0.2749,0.2805,0.2898,0.2921,0.2864,0.2849,0.3049,0.2908,0.2917,0.2932,0.2855,0.2803,0.2753,0.2756,0.2758,0.2761,0.2763,0,0.208,0.2114,0.2133,0.2184,0.2188,0.2263,0.2304,0.2275,0.2298,0.2435,0.2514,0.2376,0.2396,0.2492,0.2429,0.2449,0.2391,0.2341,0.2242,0.2282,0.2317,0.2203,0.1931,0.1928,0.1925,0.1922,0,0,0.2082,0.2084,0.209,0.2097,0.2118,0.209,0.2082,0.2039,0.2093,0.207,0.2106,0.2315,0.2444,0.2151,0.2136,0.2024,0.2125,0.1951,0.2632,0.2558,0.2588,0.2676,0.2552,0,0,0,0,0]},{"header":{"parameterUnit":"m.s-1","parameterCategory":2,"la1":30.2991,"la2":30.254,"lo1":-89.0895,"lo2":-89.0444,"dy":0.0017,"dx":0.0017,"nx":28,"ny":28,"refTime":"2023-08-26T09:00:00:Z","depth":"2","parameterNumber":3,"parameterNumberName":"V-component_of_CURRENTS"},"data":[0,0,0,0,0,0,0,0,0,0,0,0,0,0,0,0,0,0,0,0,0,0,0,0,0,0,0,0,0,0,0,0,0,0,0,0,0,0,0,0,0,0,0,0,0,0,0,0,0,0,0,0,0,0,0,0,0,0,0.0276,0.0276,0,0.0236,0.0236,0.0236,0.0126,0.0124,0.0121,0.0119,-0.0106,-0.011,-0.0114,0,0,0,0,0,0,0,0,0,0,0,0,0,0.0275,0.0276,0.0277,0.0276,0.0275,0.0236,0.0236,0.0236,0.0127,0.0124,0.012,0.0118,-0.0105,-0.011,-0.0114,0,0,0,0,0,0,0,0,0,0,0,0,0,0.0262,0.0276,0.0277,0.0215,0.0208,0.0236,0.0236,0.0236,0.0127,0.0123,0.012,0.0116,-0.0104,-0.0109,-0.0114,-0.0072,0,0,-0.0131,-0.0133,0,0,0,0,0,0,0,0,0.0262,0.0262,0.0224,0.0219,0.0212,0.0181,0.0153,0.0123,0.0128,0.016,0.0119,0.0114,-0.0026,-0.0038,-0.0032,-0.0082,-0.0092,-0.0132,-0.0135,-0.0137,-0.0139,0,0,0,0,0,0,0,0.0264,0.0263,0.0263,0.0224,0.0216,0.0194,0.0188,0.0148,0.0087,0.0157,0.0149,0.0142,-0.0031,-0.0026,-0.0038,-0.0095,-0.0131,-0.0136,-0.014,-0.0142,-0.0248,-0.0248,0,0,0,0,0,0,0.0268,0.0265,0.0264,0.0261,0.0226,0.0197,0.019,0.0196,0.0091,0.0073,0.0146,0.0137,-0.0015,-0.0032,-0.0047,-0.013,-0.0137,-0.0142,-0.0145,-0.0248,-0.0248,-0.0247,0,0,0,0,0,0,0.0269,0.0269,0.0265,0.0259,0.0257,0.0201,0.0209,0.0197,0.0174,0.0084,0.0061,0.0129,-0.0018,-0.0039,-0.0126,-0.0136,-0.0145,-0.015,-0.0249,-0.0248,-0.0248,-0.0215,0,0,0,0,0,0,0.0269,0.027,0.0284,0.026,0.0257,0.0249,0.0212,0.0199,0.0177,0.0165,0.0064,0.0041,-0.0023,-0.0118,-0.0132,-0.0143,-0.0154,-0.025,-0.0249,-0.0248,-0.0217,-0.0213,-0.0211,0,0,0,0,0,0.027,0.0291,0.0285,0.0285,0.0276,0.0248,0.0244,0.0194,0.0179,0.0162,0.0088,0.0042,-0.0122,-0.0122,-0.0138,-0.0152,-0.025,-0.0249,-0.0248,-0.0218,-0.0214,-0.0211,0,0,0,0,0,0,0.0301,0.0281,0.0274,0.029,0.0259,0.0228,0.0222,0.0199,0.014,0.0115,0.004,0.0011,-0.0073,-0.0101,-0.0099,-0.0176,-0.0189,-0.0191,-0.016,-0.0157,-0.0154,-0.013,-0.0158,0,0,0,0,0,0.032,0.0319,0.0297,0.0304,0.0298,0.0268,0.0257,0.0214,0.016,0.0132,0.0074,0.0006,-0.0067,-0.0108,-0.0175,-0.0206,-0.0225,-0.022,-0.0217,-0.0214,-0.0203,-0.0237,-0.0236,-0.0244,-0.0244,-0.0244,0,0,0.0331,0.0323,0.0321,0.031,0.0293,0.0298,0.025,0.0217,0.0215,0.0116,0.0093,0.0002,-0.0077,-0.0139,-0.0174,-0.0171,-0.0221,-0.0213,-0.021,-0.02,-0.0236,-0.0235,-0.0235,-0.0244,-0.0244,-0.0244,0,0,0.0359,0.0352,0.0367,0.0349,0.0315,0.0299,0.0291,0.0254,0.0226,0.0188,0.0106,0.0014,-0.0053,-0.0127,-0.0169,-0.0174,-0.0215,-0.0192,-0.015,-0.0184,-0.0184,-0.0184,-0.0204,-0.0206,-0.0177,-0.0177,-0.0177,0,0.0377,0.0399,0.0363,0.0376,0.0371,0.0309,0.0325,0.0303,0.0238,0.0204,0.0176,0.0039,-0.0042,-0.0125,-0.0141,-0.017,-0.0189,-0.0164,-0.018,-0.0181,-0.0181,-0.0202,-0.0205,-0.0175,-0.0175,-0.0176,-0.0176,0,0.0414,0.0434,0.0438,0.0444,0.0433,0.0419,0.0389,0.035,0.0316,0.0283,0.0186,0.0083,-0.0002,-0.0042,-0.01,-0.015,-0.0163,-0.0186,-0.019,-0.0179,-0.0201,-0.0204,-0.0173,-0.0173,-0.0174,-0.0174,0,0,0.0448,0.0465,0.0463,0.048,0.046,0.0448,0.0437,0.0398,0.038,0.0304,0.0288,0.0141,0.0071,0.0022,-0.0065,-0.01,-0.0136,-0.0138,-0.0141,-0.0158,-0.02,-0.0227,-0.0234,-0.0164,-0.0165,-0.0165,-0.0213,0,0.049,0.0536,0.0526,0.0559,0.059,0.0522,0.0531,0.0471,0.0419,0.0387,0.0265,0.0213,0.0108,0.006,0.0001,-0.0108,-0.0143,-0.012,-0.0208,-0.021,-0.0237,-0.0238,-0.0218,-0.0261,-0.0217,-0.0217,-0.0218,0,0.053,0.0564,0.0615,0.0629,0.0632,0.0634,0.059,0.0586,0.0507,0.0466,0.0371,0.0295,0.0194,0.0139,-0.0028,-0.001,-0.0098,-0.0169,-0.0173,-0.021,-0.0244,-0.0266,-0.0269,-0.0224,-0.0223,-0.0223,-0.0222,0,0.0573,0.0613,0.0656,0.066,0.0676,0.0658,0.0652,0.0591,0.0595,0.0524,0.0518,0.0375,0.0333,0.0192,0.0016,-0.0001,-0.0133,-0.017,-0.0275,-0.0277,-0.0282,-0.0284,-0.0258,-0.0258,-0.0258,-0.0257,-0.0257,0,0.0618,0.0646,0.0673,0.0695,0.0728,0.0718,0.0733,0.0684,0.0672,0.0698,0.0572,0.0565,0.0348,0.0236,0.0067,-0.0117,-0.0099,-0.0265,-0.0293,-0.0269,-0.027,-0.0255,-0.0254,-0.0259,-0.0259,-0.0259,-0.0258,0,0.0645,0.0668,0.0719,0.0746,0.0755,0.0772,0.0805,0.0826,0.0796,0.0834,0.0828,0.0714,0.0561,0.034,0.0125,-0.0035,-0.0212,-0.0277,-0.0231,-0.0254,-0.0344,-0.034,-0.0394,-0.0395,-0.0397,-0.0398,-0.0398,0,0.0662,0.07,0.0753,0.0792,0.0801,0.0841,0.0887,0.0882,0.0927,0.0927,0.0965,0.0838,0.0746,0.0411,0.0111,-0.0179,-0.0212,-0.0332,-0.0371,-0.0337,-0.0359,-0.0353,-0.0349,-0.0361,-0.0362,-0.0362,-0.0362,0,0.0706,0.0716,0.0766,0.0849,0.0902,0.0972,0.1035,0.1093,0.1118,0.1141,0.1154,0.1084,0.0769,0.0466,0.0075,-0.0123,-0.0293,-0.0349,-0.0321,-0.0332,-0.0311,-0.0331,-0.0326,-0.0366,-0.0365,-0.0365,-0.0365,-0.0365,0.0735,0.0766,0.0835,0.0906,0.0987,0.1089,0.1156,0.1236,0.1315,0.1353,0.1296,0.1195,0.087,0.0349,0.0021,-0.0319,-0.0315,-0.043,-0.0427,-0.0423,-0.0414,-0.0396,-0.0464,-0.0464,-0.0464,-0.0464,-0.0465,0,0.077,0.0809,0.0888,0.0986,0.1086,0.1116,0.1254,0.132,0.1418,0.1444,0.142,0.1106,0.0768,0.0405,-0.0099,-0.0404,-0.0428,-0.0494,-0.045,-0.0445,-0.0441,-0.0431,-0.0486,-0.0487,-0.0488,-0.0488,0,0,0.0786,0.0863,0.0898,0.1051,0.1133,0.1269,0.1352,0.1431,0.1476,0.1477,0.1419,0.1302,0.087,0.0513,0.0094,-0.0188,-0.0246,-0.0251,-0.0205,-0.01,-0.0091,-0.0382,-0.0358,0,0,0,0,0]}],[{"header":{"parameterUnit":"m.s-1","parameterCategory":2,"la1":30.2991,"la2":30.254,"lo1":-89.0895,"lo2":-89.0444,"dy":0.0017,"dx":0.0017,"nx":28,"ny":28,"refTime":"2023-08-26T09:00:00:Z","depth":"4","parameterNumber":2,"parameterNumberName":"U-component_of_CURRENTS"},"data":[0,0,0,0,0,0,0,0,0,0,0,0,0,0,0,0,0,0,0,0,0,0,0,0,0,0,0,0,0,0,0,0,0,0,0,0,0,0,0,0,0,0,0,0,0,0,0,0,0,0,0,0,0,0,0,0,0,0,0.1132,0.1133,0,0.1212,0.1213,0.1214,0.1276,0.1277,0.1278,0.1279,0.1354,0.1356,0.1357,0,0,0,0,0,0,0,0,0,0,0,0,0,0.1016,0.1017,0.1132,0.1134,0.1135,0.1212,0.1213,0.1214,0.1276,0.1277,0.1278,0.1279,0.1354,0.1355,0.1357,0,0,0,0,0,0,0,0,0,0,0,0,0,0.1077,0.1018,0.1132,0.1176,0.1181,0.1212,0.1213,0.1214,0.1276,0.1277,0.1278,0.1279,0.1353,0.1355,0.1357,0.1347,0,0,0.1363,0.1364,0,0,0,0,0,0,0,0,0.1073,0.1081,0.1169,0.1173,0.1179,0.1237,0.12,0.1259,0.1276,0.1238,0.1279,0.128,0.1315,0.132,0.1331,0.1351,0.1354,0.1363,0.1365,0.1366,0.1366,0,0,0,0,0,0,0,0.1069,0.1077,0.1163,0.117,0.1176,0.1186,0.1196,0.1211,0.1268,0.1242,0.1247,0.1258,0.1317,0.1328,0.1333,0.1355,0.1363,0.1365,0.1366,0.1367,0.1526,0.1528,0,0,0,0,0,0,0.1062,0.1074,0.116,0.1165,0.1129,0.1187,0.1198,0.1216,0.1268,0.1278,0.1257,0.126,0.1325,0.133,0.1336,0.1429,0.1366,0.1367,0.1369,0.1523,0.1526,0.153,0,0,0,0,0,0,0.1059,0.1069,0.1157,0.1122,0.1134,0.1188,0.1207,0.1217,0.1261,0.128,0.1289,0.1295,0.1326,0.1333,0.1384,0.1428,0.1368,0.137,0.1519,0.1524,0.1528,0.1549,0,0,0,0,0,0,0.1055,0.1068,0.1089,0.1122,0.1136,0.1187,0.1207,0.1218,0.1264,0.1271,0.1315,0.1321,0.1327,0.1381,0.1386,0.143,0.1372,0.1515,0.1521,0.1526,0.1545,0.1554,0.1562,0,0,0,0,0,0.1051,0.1075,0.1089,0.1101,0.116,0.1187,0.1196,0.1236,0.1265,0.1281,0.1325,0.1321,0.1422,0.1384,0.139,0.1435,0.1512,0.1519,0.1526,0.1541,0.1552,0.1562,0,0,0,0,0,0,0.1047,0.1085,0.1101,0.114,0.1166,0.1199,0.1228,0.1252,0.1299,0.1318,0.134,0.135,0.1417,0.1428,0.1387,0.1505,0.1475,0.1483,0.1485,0.1495,0.1504,0.152,0.1373,0,0,0,0,0,0.1051,0.1076,0.1109,0.1142,0.116,0.1199,0.1222,0.1246,0.1285,0.1309,0.1349,0.14,0.1444,0.147,0.1506,0.1554,0.1565,0.1598,0.1606,0.1613,0.1635,0.1675,0.1687,0.1552,0.1552,0.1552,0,0,0.1056,0.1084,0.1098,0.1141,0.1172,0.1205,0.1217,0.1258,0.1298,0.1308,0.1392,0.1425,0.1465,0.1528,0.1561,0.1544,0.1659,0.1622,0.1627,0.1645,0.1683,0.1695,0.1707,0.1556,0.1556,0.1555,0,0,0.1073,0.1108,0.1133,0.1157,0.1202,0.1225,0.1243,0.1295,0.1335,0.14,0.1431,0.1492,0.1562,0.1598,0.1624,0.1704,0.1702,0.173,0.1782,0.1819,0.183,0.1839,0.1862,0.1873,0.1734,0.1734,0.1734,0,0.1085,0.1118,0.1144,0.1176,0.1206,0.124,0.1276,0.1316,0.1382,0.1424,0.1438,0.1574,0.1599,0.1678,0.1718,0.1721,0.174,0.1727,0.1826,0.1836,0.1845,0.1867,0.1879,0.1736,0.1736,0.1736,0.1736,0,0.1101,0.1147,0.1168,0.122,0.1255,0.1287,0.134,0.1389,0.1449,0.1496,0.1601,0.1644,0.1729,0.175,0.1761,0.1852,0.1844,0.1824,0.1786,0.1859,0.1878,0.189,0.1739,0.1738,0.1738,0.1737,0,0,0.1084,0.1163,0.1172,0.121,0.128,0.1307,0.1383,0.1456,0.1519,0.1598,0.1689,0.1779,0.182,0.1856,0.1877,0.1916,0.199,0.1911,0.1912,0.1911,0.2074,0.1962,0.1964,0.1984,0.1987,0.1989,0.2057,0,0.1094,0.1154,0.1194,0.1266,0.1309,0.1365,0.1437,0.1511,0.1585,0.1678,0.1748,0.1845,0.1854,0.1906,0.195,0.1983,0.2027,0.1974,0.2026,0.2028,0.19,0.1976,0.1997,0.2066,0.2068,0.207,0.2072,0,0.1094,0.1138,0.1207,0.1307,0.1332,0.1383,0.1495,0.1562,0.1687,0.1749,0.1852,0.1915,0.2015,0.2001,0.2101,0.207,0.2095,0.2106,0.2108,0.2008,0.1939,0.1985,0.2093,0.2092,0.209,0.2089,0.2087,0,0.1061,0.1151,0.1208,0.1237,0.135,0.1405,0.1474,0.1596,0.1668,0.1809,0.1879,0.1993,0.2071,0.212,0.2177,0.2151,0.2264,0.2215,0.2136,0.2128,0.2193,0.2182,0.2292,0.2292,0.2292,0.2291,0.2291,0,0.105,0.1099,0.1201,0.1229,0.131,0.1405,0.1506,0.1586,0.1718,0.1811,0.1926,0.2006,0.2111,0.2189,0.221,0.2218,0.2295,0.2169,0.2147,0.2201,0.2191,0.22,0.2189,0.2294,0.2293,0.2293,0.2293,0,0.1013,0.1078,0.1146,0.1258,0.1303,0.1364,0.1509,0.1573,0.1714,0.1833,0.1891,0.2047,0.2147,0.2226,0.2309,0.2253,0.2269,0.2255,0.2326,0.2304,0.2095,0.2085,0.2156,0.2152,0.215,0.2147,0.2146,0,0.0994,0.103,0.1142,0.1185,0.1242,0.1346,0.1416,0.1558,0.1627,0.1841,0.1886,0.2051,0.214,0.2165,0.2247,0.2276,0.2256,0.2239,0.2156,0.2115,0.2087,0.2081,0.2074,0.2141,0.2141,0.214,0.2139,0,0.0955,0.1004,0.1056,0.1138,0.1211,0.1284,0.1396,0.1435,0.1609,0.1739,0.1851,0.1929,0.2039,0.21,0.2154,0.2165,0.2227,0.221,0.2214,0.2136,0.2098,0.2072,0.2068,0.213,0.2131,0.2132,0.2133,0,0.0924,0.094,0.1013,0.1085,0.1163,0.1213,0.1276,0.1369,0.1458,0.1683,0.1715,0.1887,0.2024,0.2046,0.209,0.2102,0.206,0.1974,0.199,0.2001,0.192,0.1847,0.1803,0,0,0,0,0,0.0886,0.0903,0.0957,0.102,0.109,0.1143,0.1262,0.1329,0.1484,0.1521,0.162,0.172,0.1814,0.1895,0.1877,0.2016,0.2061,0.1984,0.1967,0.2078,0.2089,0.2009,0,0,0,0,0,0,0.0864,0.0903,0.0929,0.0958,0.0991,0.1058,0.1129,0.1234,0.1263,0.1429,0.1487,0.1613,0.1724,0.1812,0.1845,0.1869,0.1821,0.2086,0.2081,0.2072,0.2082,0.2091,0.2012,0,0,0,0,0]},{"header":{"parameterUnit":"m.s-1","parameterCategory":2,"la1":30.2991,"la2":30.254,"lo1":-89.0895,"lo2":-89.0444,"dy":0.0017,"dx":0.0017,"nx":28,"ny":28,"refTime":"2023-08-26T09:00:00:Z","depth":"4","parameterNumber":3,"parameterNumberName":"V-component_of_CURRENTS"},"data":[0,0,0,0,0,0,0,0,0,0,0,0,0,0,0,0,0,0,0,0,0,0,0,0,0,0,0,0,0,0,0,0,0,0,0,0,0,0,0,0,0,0,0,0,0,0,0,0,0,0,0,0,0,0,0,0,0,0,0.0381,0.038,0,0.0336,0.0335,0.0334,0.0293,0.0292,0.0292,0.0292,0.022,0.0218,0.0216,0,0,0,0,0,0,0,0,0,0,0,0,0,0.0379,0.0379,0.0381,0.038,0.038,0.0336,0.0335,0.0334,0.0293,0.0292,0.0292,0.0291,0.022,0.0218,0.0216,0,0,0,0,0,0,0,0,0,0,0,0,0,0.036,0.0379,0.0381,0.0355,0.0352,0.0336,0.0335,0.0334,0.0293,0.0292,0.0292,0.0291,0.0221,0.0218,0.0216,0.0212,0,0,0.0209,0.0208,0,0,0,0,0,0,0,0,0.0361,0.036,0.0359,0.0357,0.0354,0.0321,0.0308,0.0292,0.0293,0.0314,0.0292,0.0291,0.0252,0.0247,0.0238,0.0209,0.0206,0.0209,0.0207,0.0206,0.0205,0,0,0,0,0,0,0,0.0362,0.0361,0.0361,0.0359,0.0356,0.0328,0.0325,0.0304,0.0285,0.0312,0.0309,0.0307,0.025,0.0241,0.0236,0.0205,0.0209,0.0207,0.0205,0.0204,0.0128,0.0127,0,0,0,0,0,0,0.0375,0.0363,0.0363,0.036,0.0358,0.0329,0.0325,0.0331,0.0286,0.0279,0.0307,0.0305,0.0245,0.0239,0.0233,0.0215,0.0206,0.0204,0.0203,0.0128,0.0127,0.0127,0,0,0,0,0,0,0.0375,0.0376,0.0365,0.0361,0.0358,0.033,0.0336,0.033,0.0326,0.0283,0.0275,0.031,0.0244,0.0237,0.0218,0.0213,0.0203,0.0201,0.0129,0.0128,0.0127,0.0187,0,0,0,0,0,0,0.0375,0.0376,0.0384,0.0362,0.0359,0.0363,0.0336,0.033,0.0326,0.0323,0.0283,0.0275,0.0243,0.0222,0.0216,0.0209,0.0199,0.013,0.0128,0.0127,0.0185,0.0188,0.019,0,0,0,0,0,0.0376,0.0387,0.0385,0.0385,0.0371,0.0363,0.0359,0.0335,0.0327,0.0329,0.03,0.0277,0.0209,0.0221,0.0213,0.0206,0.013,0.0129,0.0127,0.0184,0.0187,0.019,0,0,0,0,0,0,0.038,0.0383,0.038,0.039,0.0383,0.0357,0.0358,0.0346,0.0325,0.0321,0.0281,0.0272,0.0248,0.022,0.0233,0.0176,0.0161,0.0158,0.0206,0.0209,0.0211,0.0227,0.0197,0,0,0,0,0,0.039,0.0405,0.0396,0.0404,0.0406,0.0387,0.0381,0.0367,0.0347,0.0338,0.0312,0.0274,0.0236,0.022,0.0186,0.0168,0.0131,0.0152,0.0154,0.0157,0.0162,0.0101,0.0099,0.0122,0.0122,0.0122,0,0,0.0397,0.0397,0.0407,0.0407,0.0401,0.0405,0.0382,0.0381,0.038,0.0333,0.0327,0.0288,0.0233,0.0205,0.0191,0.0183,0.0129,0.0155,0.0158,0.0161,0.0099,0.0097,0.0095,0.0121,0.0121,0.0122,0,0,0.0416,0.042,0.044,0.0439,0.0436,0.0423,0.0429,0.0414,0.0405,0.0397,0.0351,0.0314,0.0274,0.0226,0.0196,0.0192,0.0145,0.0175,0.02,0.0141,0.0139,0.0136,0.009,0.0083,0.0174,0.0174,0.0174,0,0.0421,0.0444,0.0442,0.0455,0.0458,0.0437,0.0452,0.044,0.0418,0.0411,0.0403,0.0321,0.0281,0.0226,0.022,0.0199,0.0161,0.0199,0.0146,0.0142,0.0139,0.0091,0.0083,0.0177,0.0176,0.0176,0.0176,0,0.0451,0.047,0.048,0.0494,0.0496,0.0504,0.0493,0.0489,0.0479,0.046,0.0422,0.0364,0.0312,0.0285,0.0254,0.0202,0.0182,0.016,0.0146,0.0141,0.009,0.0081,0.0181,0.018,0.0179,0.0178,0,0,0.0463,0.0498,0.0503,0.0521,0.0519,0.0525,0.0526,0.0519,0.0519,0.0486,0.0474,0.0401,0.0368,0.0331,0.0276,0.0224,0.0169,0.0188,0.0184,0.0155,0.0044,0.0034,0.0022,0.0137,0.0136,0.0135,0.002,0,0.0487,0.053,0.0536,0.0569,0.059,0.0575,0.0583,0.057,0.055,0.0533,0.0463,0.0431,0.0385,0.0359,0.0298,0.0198,0.0145,0.0202,0.0042,0.0037,0.0039,0.0011,0.013,0.0013,0.001,0.0009,0.0007,0,0.0512,0.0539,0.0586,0.0619,0.0628,0.0643,0.0647,0.065,0.0612,0.0597,0.0543,0.0491,0.0405,0.0373,0.0207,0.0245,0.0155,0.0079,0.0072,0.0037,0.0008,0.0014,-0.0011,-0.0009,-0.0008,-0.0007,-0.0006,0,0.0526,0.0572,0.0615,0.0625,0.0655,0.0674,0.0688,0.0672,0.0677,0.0635,0.0623,0.052,0.0464,0.0338,0.0186,0.0192,0.0005,-0.0009,-0.0104,-0.0105,-0.0085,-0.0082,-0.0121,-0.0121,-0.0121,-0.012,-0.012,0,0.0542,0.0576,0.0632,0.0653,0.0703,0.0715,0.0751,0.0744,0.0736,0.0733,0.0661,0.0617,0.0452,0.0326,0.0194,0.0013,0.0006,-0.0105,-0.014,-0.0058,-0.005,-0.0092,-0.0087,-0.0125,-0.0124,-0.0123,-0.0122,0,0.0545,0.0583,0.0633,0.0689,0.0712,0.0749,0.0803,0.0819,0.0811,0.0799,0.0788,0.0676,0.0507,0.0338,0.012,0.0022,-0.0146,-0.0205,-0.0099,-0.0126,-0.0217,-0.0208,-0.0323,-0.0324,-0.0325,-0.0326,-0.0327,0,0.0551,0.0579,0.066,0.0697,0.0728,0.0789,0.0827,0.0851,0.0865,0.0824,0.0811,0.0666,0.0567,0.026,0.0083,-0.017,-0.0203,-0.0274,-0.025,-0.0217,-0.024,-0.0229,-0.0218,-0.0329,-0.0329,-0.033,-0.033,0,0.0549,0.0584,0.0626,0.0705,0.0763,0.0823,0.088,0.0898,0.091,0.0904,0.0813,0.0661,0.0469,0.0243,0.0049,-0.0131,-0.0219,-0.0287,-0.0286,-0.0264,-0.0226,-0.0245,-0.0234,-0.0334,-0.0333,-0.0333,-0.0333,0,0.0546,0.0575,0.0635,0.0701,0.0774,0.0831,0.087,0.0884,0.0899,0.0866,0.0826,0.0636,0.0529,0.0261,0.0078,-0.0097,-0.014,-0.0176,-0.0181,-0.0178,-0.01,-0.0027,-0.0112,0,0,0,0,0,0.0537,0.0568,0.0626,0.0696,0.0767,0.0813,0.0886,0.0917,0.0936,0.0875,0.0857,0.0679,0.0402,0.0281,0.01,0.0047,-0.0172,-0.0169,-0.0217,-0.0357,-0.0352,-0.0286,0,0,0,0,0,0,0.0531,0.0583,0.0612,0.0675,0.0725,0.08,0.0853,0.0873,0.0845,0.084,0.0691,0.0636,0.0361,0.0491,0.0091,0.0039,-0.0012,-0.0294,-0.0298,-0.036,-0.0356,-0.0352,-0.0281,0,0,0,0,0]}]]